Regional Weather Roundup
Issued by NWS Albany, NY

Home | Current Version | Previous Version | Graphics & Text | Print | Product List | Glossary Off
Versions: 1 2 3 4 5 6 7 8 9 10 11 12 13 14 15 16 17 18 19 20 21 22 23 24 25 26 27 28 29 30 31 32 33 34 35 36 37 38 39 40 41 42 43 44 45 46 47 48 49 50

520
ASUS41 KALY 251010
RWRALY

NEW YORK STATE HOURLY WEATHER ROUNDUP
NATIONAL WEATHER SERVICE ALBANY NY
600 AM EDT SAT MAR 25 2017

NOTE: "FAIR" INDICATES FEW OR NO CLOUDS BELOW 12,000 FEET WITH NO
SIGNIFICANT WEATHER AND/OR NO OBSTRUCTIONS TO VISIBILITY.

NYZ032-033-038>043-046>054-057>066-NYZ062>081-082-084-251100-
EAST


CITY           SKY/WX    TMP DP  RH WIND       PRES   REMARKS
ALBANY         LGT RAIN  38  35  89 N5        30.15R FOG     WCI  34
GLENS FALLS    LGT RAIN  35  32  88 N5        30.17R WCI  31
POUGHKEEPSIE   CLOUDY    38  33  82 CALM      30.11R
NEWBURGH       MOCLDY    41  36  81 VRB5      30.11R
MONTGOMERY     CLOUDY    38  34  85 CALM      30.11R
WHITE PLAINS   MOCLDY    43  33  68 CALM      30.08R
ISLIP          MOCLDY    43  39  86 CALM      30.10R
NEW YORK CITY  CLOUDY    54  37  52 S7        30.08R
CENTRAL PARK   PTCLDY    54  37  52 W8G18     30.09R
$$

NYZ005>009-017-018-044>046-055-056-251100-
CENTRAL


CITY           SKY/WX    TMP DP  RH WIND       PRES   REMARKS
FULTON         CLOUDY    34  32  92 N7        30.17R WCI  28
SYRACUSE       DRIZZLE   34  34 100 W5        30.15R WCI  30
ROME           CLOUDY    35  35 100 NW6       30.17R WCI  30
ELMIRA         CLOUDY    42  38  85 E6        30.13R FOG
BINGHAMTON     FOG       38  38 100 CALM      30.08R VSB 3/4
MONTICELLO     CLOUDY    39  37  93 CALM      30.10R
$$

NYZ026>034-041>043-087-251100-
NORTH


CITY           SKY/WX    TMP DP  RH WIND       PRES   REMARKS
WATERTOWN      CLOUDY    33  33 100 NE8       30.18F FOG     WCI  26
FORT DRUM      NOT AVBL
MASSENA        FOG       30  30 100 CALM      30.23R VSB 1/2
SARANAC LAKE   CLOUDY    30  30 100 N3        30.11R
PLATTSBURGH    CLOUDY    32  31  96 CALM      30.18F FOG
$$

NYZ001>004-010>016-019>021-085-251100-
WEST


CITY           SKY/WX    TMP DP  RH WIND       PRES   REMARKS
NIAGARA FALLS  CLOUDY    38  35  89 E14       30.14S WCI  30
BUFFALO        CLOUDY    38  36  92 NE14      30.14R WCI  30
DUNKIRK        CLOUDY    39  38  96 N7        30.11R FOG     WCI  34
JAMESTOWN      MOCLDY    50  45  81 SW3       30.08R
WELLSVILLE     CLOUDY    42  40  92 CALM      30.10R FOG
ROCHESTER      LGT RAIN  36  35  96 E8        30.18R WCI  30
PENN YAN       HVY RAIN  36  33  89 N7        30.17R FOG     WCI  30
$$

             KEY
       WCI = WIND CHILL INDEX
       VSB = VISIBILITY
       HX  = HEAT INDEX
$$




USA.gov is the U.S. government's official web portal to all federal, state and local government web resources and services.